Starlink 11533

operational
NORAD ID: 62836 Int'l Des: 2025-019 Owner: SPXS Country: US Constellation: starlink
LEOCIRCULAR

关于 Starlink 11533

正在加载描述...

实时位置

正在加载3D地球...

即将过境

高度历史

Altitude vs Time

uPlot chart will show altitude changes over time

两行轨道根数

1 62836U 25019H 25303.24131772 .00236527 00000-0 17879-2 0 9991
2 62836 42.9990 12.3675 0001547 301.0610 59.0106 15.70932527 43360
Epoch: Oct 30, 2025 • Age: 22 hours

当前状态

高度 357.2 km
速度 7.70 km/s
星下点 36.79°N, 31.02°W
发射日期 Jan 27, 2025
运行时间 0.7 years
类型 internet

技术详情

分类 Payload
质量 960.00 kg
干质量 910.00 kg
总质量 960.00 kg
长度 0.30 m
直径 4.10 m
跨度 29.00 m
形状 Box + pan
制造商 SPXS
平台类型 Starlink V2MD
阶段状态 In Orbit
所有者/国家 SPXS/US

大型星座

Loading constellations...